Weather History for KBGM - January, 2013

Change the Weather History Date:

Monday, January 21, 2013

  Actual Average Record
Temperature  
Mean Temperature 18 °F 22 °F  
Max Temperature 22 °F 29 °F 58 °F (1959)
Min Temperature 13 °F 15 °F -15 °F (1985)
Degree Days  
Heating Degree Days 47 43  
Month to date heating degree days 761 897  
Since 1 July heating degree days 3302 3642  
Cooling Degree Days 0 0  
Month to date cooling degree days 0 0  
Year to date cooling degree days 0 0  
Moisture  
Dew Point 10 °F    
Average Humidity 70    
Maximum Humidity 84    
Minimum Humidity 56    
Precipitation  
Precipitation 0.03 in 0.08 in 0.88 in (1959)
Month to date precipitation 0.57 1.67  
Year to date precipitation 0.57 1.67  
Snow  
Snow 1.20 in 0.70 in 4.40 in (1953)
Month to date snowfall 7.6 15.3  
Since 1 July snowfall 32.6 39.9  
Snow Depth T in    
Sea Level Pressure  
Sea Level Pressure 29.86 in    
Wind  
Wind Speed 8 mph (WSW)    
Max Wind Speed 17 mph    
Max Gust Speed 23 mph    
Visibility 6 miles    
Events Snow    
T = Trace of Precipitation, MM = Missing Value Source: NWS Daily Summary

Daily Weather History Graph

Daily Weather History Graph

Search for Another Location

Airport or City:

Trip Planner

Search our weather history database for the weather conditions in past years. The results will help you decide how hot, cold, wet, or windy it might be!

Date:

Astronomy

Jan. 21, 2013 Rise Set
Actual Time 7:26 AM EST 5:04 PM EST
Civil Twilight 6:55 AM EST 5:35 PM EST
Nautical Twilight 6:21 AM EST 6:09 PM EST
Astronomical Twilight 5:48 AM EST 6:42 PM EST
Moon 12:42 PM EST (1/21) 2:52 AM EST (1/21)
Length of Visible Light 10h 39m
Length of Day
9h 38m
Waxing Gibbous, 75% of the Moon is Illuminated
Jan 21
Waxing Gibbous
Jan 26
Full
Feb 3
Last Quarter
Feb 10
New
Feb 17
First Quarter

Hourly Weather History & Observations

Time (EST) Temp. Windchill Dew Point Humidity Pressure Visibility Wind Dir Wind Speed Gust Speed Precip Events Conditions
12:53 AM 18.0 °F 9.8 °F 8.1 °F 65% 30.01 in 10.0 mi WNW 5.8 mph - 0.00 in   Overcast
1:53 AM 17.1 °F 5.8 °F 5.0 °F 59% 30.01 in 10.0 mi WNW 9.2 mph - N/A   Overcast
2:53 AM 17.1 °F 6.6 °F 5.0 °F 59% 30.04 in 10.0 mi WNW 8.1 mph - N/A   Overcast
3:53 AM 17.1 °F 7.6 °F 5.0 °F 59% 30.02 in 10.0 mi WNW 6.9 mph - N/A   Overcast
4:53 AM 17.1 °F 8.7 °F 5.0 °F 59% 30.01 in 10.0 mi West 5.8 mph - N/A   Overcast
5:53 AM 17.1 °F - 6.1 °F 62% 30.01 in 10.0 mi Calm Calm - N/A   Overcast
6:53 AM 17.6 °F - 6.8 °F 63% 29.93 in 10.0 mi Calm Calm - N/A   Overcast
7:53 AM 17.1 °F - 7.0 °F 65% 30.00 in 10.0 mi Calm Calm - N/A   Overcast
8:53 AM 17.1 °F 10.0 °F 8.1 °F 68% 30.00 in 10.0 mi SSE 4.6 mph - N/A   Overcast
9:34 AM 17.6 °F 9.3 °F 8.6 °F 68% 29.91 in 3.0 mi South 5.8 mph - 0.00 in Snow Light Snow
9:53 AM 18.0 °F 11.1 °F 10.0 °F 71% 29.99 in 5.0 mi South 4.6 mph - 0.00 in Snow Light Snow
10:19 AM 19.4 °F 10.4 °F 12.2 °F 74% 29.90 in 1.5 mi SSW 6.9 mph - 0.00 in Snow Light Snow
10:53 AM 19.9 °F 12.1 °F 12.9 °F 74% 29.96 in 1.5 mi South 5.8 mph - 0.00 in Snow Light Snow
11:01 AM 19.4 °F 9.5 °F 12.2 °F 74% 29.88 in 3.0 mi SSW 8.1 mph - 0.00 in Snow Light Snow
11:11 AM 19.4 °F 7.2 °F 12.2 °F 74% 29.87 in 3.0 mi SW 11.5 mph - 0.00 in Snow Light Snow
11:53 AM 21.0 °F 11.4 °F 10.9 °F 65% 29.91 in 10.0 mi SSW 8.1 mph - 0.00 in   Overcast
12:50 PM 21.2 °F 10.9 °F 8.6 °F 58% 29.79 in 10.0 mi SW 9.2 mph 19.6 mph 0.00 in   Overcast
12:53 PM 21.0 °F 9.9 °F 10.0 °F 63% 29.87 in 10.0 mi SW 10.4 mph 19.6 mph 0.00 in   Overcast
1:53 PM 21.9 °F 10.4 °F 7.0 °F 53% 29.84 in 8.0 mi SW 11.5 mph - 0.00 in Snow Light Snow
2:53 PM 21.0 °F 8.6 °F 8.1 °F 57% 29.83 in 10.0 mi SW 12.7 mph 18.4 mph 0.00 in   Overcast
3:53 PM 21.0 °F 9.9 °F 10.0 °F 63% 29.83 in 10.0 mi SW 10.4 mph - 0.00 in   Overcast
4:31 PM 19.4 °F 7.9 °F 12.2 °F 74% 29.75 in 2.0 mi WSW 10.4 mph 19.6 mph 0.00 in Snow Light Snow
4:36 PM 19.4 °F 8.6 °F 12.2 °F 74% 29.75 in 1.5 mi WSW 9.2 mph - 0.00 in Snow Light Snow
4:53 PM 19.0 °F 8.2 °F 14.0 °F 81% 29.84 in 1.0 mi West 9.2 mph - 0.01 in Snow Light Snow
5:11 PM 19.4 °F 10.4 °F 15.8 °F 86% 29.77 in 0.8 mi WSW 6.9 mph - 0.00 in Snow Light Snow
5:28 PM 19.4 °F 12.8 °F 15.8 °F 86% 29.77 in 1.0 mi WSW 4.6 mph - 0.00 in Snow Light Snow
5:34 PM 19.4 °F 11.5 °F 15.8 °F 86% 29.77 in 2.0 mi SW 5.8 mph - 0.01 in Snow Light Snow
5:53 PM 19.0 °F 12.3 °F 16.0 °F 88% 29.85 in 1.0 mi SW 4.6 mph - 0.01 in Snow Light Snow
6:12 PM 19.4 °F 12.8 °F 15.8 °F 86% 29.77 in 2.0 mi WSW 4.6 mph - 0.00 in Snow Light Snow
6:17 PM 17.6 °F 12.3 °F 15.8 °F 93% 29.77 in 4.0 mi SW 3.5 mph - 0.00 in Snow Light Snow
6:29 PM 17.6 °F 10.7 °F 15.8 °F 93% 29.77 in 6.0 mi SW 4.6 mph - 0.00 in Snow Light Snow
6:37 PM 17.6 °F 8.2 °F 15.8 °F 93% 29.77 in 6.0 mi SW 6.9 mph - 0.00 in Snow Light Snow
6:44 PM 19.4 °F 10.4 °F 15.8 °F 86% 29.77 in 3.0 mi SW 6.9 mph - 0.00 in Snow Light Snow
6:53 PM 19.0 °F 12.3 °F 16.0 °F 88% 29.85 in 2.5 mi SW 4.6 mph - 0.00 in Snow Light Snow
6:55 PM 19.4 °F 12.8 °F 15.8 °F 86% 29.77 in 3.0 mi WSW 4.6 mph - 0.00 in Snow Light Snow
7:53 PM 18.0 °F 5.4 °F 10.0 °F 71% 29.85 in 10.0 mi West 11.5 mph - 0.00 in   Mostly Cloudy
8:53 PM 16.0 °F 5.3 °F 9.0 °F 74% 29.85 in 10.0 mi West 8.1 mph - N/A   Overcast
9:53 PM 16.0 °F 3.6 °F 7.0 °F 68% 29.84 in 10.0 mi West 10.4 mph 17.3 mph N/A   Mostly Cloudy
10:53 PM 15.1 °F 1.1 °F 5.0 °F 64% 29.83 in 10.0 mi West 12.7 mph - N/A   Overcast
11:07 PM 15.8 °F 3.4 °F 5.0 °F 62% 29.74 in 6.0 mi WNW 10.4 mph - 0.00 in Snow Light Snow
11:19 PM 15.8 °F 5.1 °F 8.6 °F 73% 29.75 in 1.0 mi WNW 8.1 mph - 0.00 in Snow Light Snow
11:25 PM 14.0 °F 5.1 °F 8.6 °F 79% 29.75 in 0.8 mi NW 5.8 mph - 0.01 in Snow Light Snow
11:33 PM 14.0 °F 2.0 °F 10.4 °F 86% 29.75 in 1.0 mi NW 9.2 mph - 0.01 in Snow Light Snow
11:42 PM 14.0 °F 2.0 °F 10.4 °F 86% 29.75 in 1.0 mi NW 9.2 mph - 0.01 in Snow Light Snow
11:51 PM 12.2 °F -0.2 °F 8.6 °F 85% 29.74 in 3.0 mi NW 9.2 mph - 0.01 in Snow Light Snow
11:53 PM 12.9 °F 1.6 °F 9.0 °F 84% 29.83 in 4.0 mi WNW 8.1 mph - 0.01 in Snow Light Snow